Regional Weather Roundup
Issued by NWS Grand Forks, ND

Home | Current Version | Previous Version | Text Only | Print | Product List | Glossary On
Versions: 1 2 3 4 5 6 7 8 9 10 11 12 13 14 15 16 17 18 19 20 21 22 23 24 25 26 27 28 29 30 31 32 33 34 35 36 37 38 39 40 41 42 43 44 45 46 47 48 49 50
000
ASUS43 KFGF 030231
RWRFGF
PRAIRIE TO PINES  WEATHER ROUNDUP
NATIONAL WEATHER SERVICE EASTERN NORTH DAKOTA/GRAND FORKS ND
800 PM CST FRI DEC 02 2016

 **SATELLITE DATA USED TO AUGMENT SKY COVER AT AUTOMATED STATIONS**
 *****  WEATHER ACROSS EASTERN NORTH DAKOTA  *****

CITY           SKY/WX    TMP DP  RH WIND       PRES   REMARKS
GRAND FORKS    CLOUDY    31  23  72 CALM      30.26F
GRAND FRKS AFB CLOUDY    30  21  69 W6        30.26F WCI  24
GRAND FRKS NWS   N/A     30 N/A N/A W9          N/A  WCI  22
DEVILS LAKE    FLURRIES  26  20  77 S9        30.23F WCI  17
FARGO          CLOUDY    29  19  66 CALM      30.30S
WAHPETON ARPT  CLOUDY    28  21  74 W6        30.31S WCI  22
$$

 ***** WEATHER ACROSS CENTRAL AND WESTERN NORTH DAKOTA  *****

CITY           SKY/WX    TMP DP  RH WIND       PRES   REMARKS
BISMARCK       PTCLDY    22  19  89 SE9       30.21F WCI  12
MINOT          CLOUDY    28  25  88 SE3       30.13F
JAMESTOWN      FAIR      22  16  78 SW6       30.25F WCI  14
MINOT AFB      CLOUDY    26  24  89 S9        30.13F WCI  17
GARRISON         N/A     28  25  88 S12       30.14F WCI  18
WILLISTON      CLEAR     27  24  89 S5        30.09F WCI  22
DICKINSON      CLEAR     21  19  92 S10       30.10F WCI  10
HETTINGER      CLEAR     23  21  92 S7        30.16S WCI  15
$$

 *****  OTHER AIRPORT OBSERVATIONS IN OUR AREA  *****

CITY           SKY/WX    TMP DP  RH WIND       PRES   REMARKS
WALHALLA         N/A     28  28 100 W6        30.24S WCI  22
GRAFTON AIRPOR CLOUDY    30  25  80 CALM      30.27F
VALLEY CITY AR CLOUDY    27  19  74 W5        30.28S WCI  21
CANDO          CLOUDY    25  23  93 S10       30.23F WCI  15
CAVALIER APRT    N/A     32  25  74 W3        30.24F
GWINNER        CLOUDY    28  23  80 W3        30.30R
SHEYENNE NWR     N/A     26  18  70 W2        29.95S
ROLLA          CLOUDY    25  25 100 S9        30.18F WCI  15
 ***** THE ABOVE OBSERVATIONS ARE NON NWS ARE NOT QUALITY
       CONTROLLED AND MAY MIS-REPORT RAIN FOR SNOW...
$$

  *****  WEATHER ACROSS NORTHERN MINNESOTA  *****

CITY           SKY/WX    TMP DP  RH WIND       PRES   REMARKS
FLAG ISLAND    CLOUDY    21  19  93 NW5       30.24S WCI  15
WARROAD        CLOUDY    25  21  86 CALM      30.25S
ROSEAU         CLOUDY    27  21  80 N6        30.25S WCI  20
HALLOCK        CLOUDY    28  27  93 SE3       30.25F
THF RVR FALLS  CLOUDY    27  23  85 SE3       30.27S
BAUDETTE       CLOUDY    24  20  84 W7        30.24S WCI  16
WASKISH        CLOUDY    27  23  86 CALM      30.25S
CROOKSTON      CLOUDY    30  25  80 CALM      30.28S
STEPHEN NDAWN    N/A     30  28  93 E3          N/A
GREENBUSH NDAW   N/A     27  25  93 SW3         N/A
$$
  *****  WEATHER ACROSS CENTRAL AND WEST MINNESOTA  *****

CITY           SKY/WX    TMP DP  RH WIND       PRES   REMARKS
FOSSTON        CLOUDY    25  19  80 CALM      30.26F
BEMIDJI        CLOUDY    24  20  83 W8        30.25F WCI  15
PARK RAPIDS    CLOUDY    25  18  74 CALM      30.26R
ELBOW LAKE     CLOUDY    26  20  77 CALM      30.30R
WADENA         CLOUDY    25  19  80 NW5       30.26F WCI  19
DETROIT LAKES  CLOUDY    28  23  80 W7        30.27F WCI  21
MOORHEAD       CLOUDY    28  19  69 CALM      30.30F
FERGUS FALLS   CLOUDY    27  19  74 CALM      30.33S
MORRIS MN      CLOUDY    27  21  80 NW6       30.29S WCI  20
STAPLES        CLOUDY    25  21  86 NW7       30.27S WCI  17
$$
  *****  WEATHER ELSEWHERE ACROSS MINNESOTA  *****

CITY           SKY/WX    TMP DP  RH WIND       PRES   REMARKS
DULUTH         CLOUDY    28  25  88 NW9       30.22S WCI  19
INTRNTL FALLS  CLOUDY    23  19  85 W8        30.25R WCI  14
ELY            CLOUDY    27  25  93 W5        30.21S WCI  21
CLOQUET        CLOUDY    28  23  80 W6        30.24R WCI  22
WHEATON        CLOUDY   N/A N/A N/A W5        30.33R
BRAINERD       CLOUDY    26  22  84 W7        30.27F WCI  18
HIBBING        CLOUDY    24  22  91 W5        30.24R WCI  18
ALEXANDRIA     CLOUDY    26  20  77 NW5       30.28S WCI  20
SAINT CLOUD    CLOUDY    29  23  78 NW8       30.27F WCI  21
MINNEAPOLIS    CLOUDY    31  23  72 W7        30.29S WCI  24
$$

  *****  WEATHER ACROSS SOUTH DAKOTA  *****

CITY           SKY/WX    TMP DP  RH WIND       PRES   REMARKS
SIOUX FALLS    CLOUDY    30  24  78 NW3       30.30S
BROOKINGS      FLURRIES  26  21  81 NW3       30.28S
WATERTOWN      CLOUDY    24  18  77 N6        30.26F WCI  17
HURON          CLOUDY    29  25  85 CALM      30.29F
SISSETON         N/A     26  19  74 N6        30.30S WCI  19
ABERDEEN       CLOUDY    28  18  66 N6        30.30S WCI  22
MITCHELL       CLOUDY    31  26  82 CALM      30.32R
PIERRE         FOG       20  18  92 CALM      30.25R VSB 1/2
MOBRIDGE       MOCLDY    25  20  81 SE7       30.21S WCI  17
RAPID CITY     CLEAR     24  21  88 S3        30.18F
$$

  *****  SOME WEATHER IN NEARBY STATES *****

CITY           SKY/WX    TMP DP  RH WIND       PRES   REMARKS
GLASGOW MT     CLEAR     24  21  88 SE9       29.99F WCI  14
GREAT FALLS MT CLOUDY    30  20  66 SW17      29.96F WCI  18
CHEYENNE WY    CLOUDY    25  22  88 S9        30.13S WCI  15
SCOTTSBLUFF NE PTCLDY    22  14  71 CALM      30.20R
OMAHA NE       CLOUDY    34  26  72 CALM      30.35R
DES MOINES IA  CLOUDY    38  33  82 CALM      30.34S
DAVENPORT IA   CLOUDY    33  26  75 NW10      30.33R WCI  25
CHICAGO IL     CLOUDY    35  25  66 NW8       30.29R
EAU CLAIRE WI  CLOUDY    31  24  75 NW6       30.26F
LA CROSSE WI   CLOUDY    34  23  64 NW6       30.30R
$$

  *****  SOME NATIONAL WEATHER *****

CITY           SKY/WX    TMP DP  RH WIND       PRES   REMARKS
LA GUARDIA NY  MOCLDY    48  29  47 W16G24    29.89S
RALEIGH NC     FAIR      43  32  65 W3        30.16R
ATLANTA GA     PTCLDY    49  32  52 N6        30.24S
NEW ORLEANS LA CLOUDY    62  45  53 E10       30.20R
OKLAHOMA CITY  LGT RAIN  52  44  74 SE3       30.18R
ALBUQUERQUE NM CLOUDY    38  20  48 E24G35    30.02R
SALT LAKE CITY CLEAR     31  23  72 NW3       30.26S
LOS ANGELES CA CLEAR     61   5  10 NE10      30.03R
BOISE ID       CLOUDY    34  24  67 SE7       30.33F
SEATTLE WA     LGT RAIN  46  45  96 SW18G28   30.09F
$$

*** WEATHER ACROSS MANITOBA...SASKATCHEWAN AND ONTARIO ***
                ***ONTARIO***

CITY           SKY/WX    TMP DP  RH WIND       PRES   REMARKS
GERALDTON      FLURRIES  23  21  93 NW7       30.16S WCI  15
THUNDER BAY    CLOUDY    30  25  80 NW8       30.23R WCI  23
SIOUX LOOKOUT  FRZ DRZL  23  21  93 CALM      30.21R
TORONTO        MOCLDY    36  27  69 W9        29.99R
BIG TROUT LK   CLOUDY    16  16 100 NW7       30.26  WCI   6
PICKLE LAKE    FLURRIES  18  16  93 NW6       30.22R WCI   9
DRYDEN         CLOUDY    21  21 100 W3        30.21R
KENORA         FLURRIES  18  16  93 VRB2      30.22F
$$
                *** MANITOBA***

CITY           SKY/WX    TMP DP  RH WIND       PRES   REMARKS
BRANDON        FLURRIES  27  21  80 S3        30.17F
DAUPHIN        CLOUDY    28  25  86 S7        30.15F WCI  21
ISLAND LAKE    NOT AVBL
PILOT MOUND      N/A     27  23  86 SW10        N/A  WCI  17
THE PAS        CLOUDY    25  23  93 SE7       30.10F WCI  17
THOMPSON       FLURRIES  16  14  93 S3        30.17F
WINNIPEG       CLOUDY    27  23  86 S7        30.24F WCI  19
LYNN LAKE      CLOUDY    18  18 100 SE8       30.04S WCI   7
CHURCHILL      CLEAR      3   0  85 SW8       30.19F WCI -10
GILLAM         LGT SNOW  10   7  85 SW8       30.24F WCI  -1
$$
                ***SASKATCHEWAN***

CITY           SKY/WX    TMP DP  RH WIND       PRES   REMARKS
ESTEVAN        FLURRIES  28  25  86 SE10      30.06F WCI  19
KINDERSLEY     CLOUDY    23  21  93 SE16G23   29.82F WCI  10
LLOYDMINSTER   CLOUDY    21  21 100 SE16G22   29.79F FOG     WCI   7
PRINCE ALBERT  FLURRIES  28  25  86 S10       29.98F WCI  19
REGINA         CLOUDY    27  23  86 S12       30.01F WCI  16
YORKTON        CLOUDY    28  25  86 S8        30.06F WCI  20
N. BATTLEFORD  CLOUDY    23  23 100 SE10G17   29.92F WCI  12
LA RONGE       FRZ DRZL  25  21  86 S9        29.98F WCI  15
SASKATOON      CLOUDY    27  21  80 S13G20    29.97F WCI  16
SWIFT CURRENT  CLEAR     21  21 100 S14       29.86F WCI   8
$$
NOTE: THESE ARE AUTOMATED STATIONS WITH LIMITED QUALITY CONTROL
      "FAIR" INDICATES FEW OR NO CLOUDS BELOW 12,000 FEET WITH NO
      SIGNIFICANT WEATHER AND/OR OBSTRUCTIONS TO VISIBILITY.
      SKY/WX - SKY CONDITION AND SIGNIFICANT WEATHER.
      TMP - AIR TEMPERATURE.    DP   - DEWPOINT TEMPERATURE.
      RH  - RELATIVE HUMIDITY.  PRES - PRESSURE.
      HX  - HEAT INDEX.         WCI  - WIND CHILL INDEX.
$




USA.gov is the U.S. government's official web portal to all federal, state and local government web resources and services.